www.pogodaiklimat.ru

Погода и климат >> Архив погоды >> Катар >> Абу Самба


ПОГОДА в Абу Самба

  • Прогноз погоды в Абу Самба
  • Монитор погоды в Абу Самба

АРХИВ ПОГОДЫ в Абу Самба

Время (UTC), дата Ветер
(напр.,м/с)
 
Видим.   Явления Облачность Т
(С)
Тd
(С)
f
(%)
Тe
(С)
Тes
(С)
Комфортность P
(гПа)
Po
(гПа)
Тmin
(С)
Tmax
(С)
R
(мм)
R24
(мм)
S
(см)
06 13.09 СЗ 8 20 км н/о +34.0 +20.6 46 +41 +41 опасность
перегрева
1006.9 1006.3 +30.1
09 13.09 СЗ 9 20 км н/о +34.2 +20.1 44 +41 +41 опасность
перегрева
1006.9 1006.3
12 13.09 СЗ 9 20 км н/о +34.2 +20.1 44 +41 +41 опасность
перегрева
1006.9 1006.3
15 13.09 СЗ 9 20 км н/о +34.2 +20.1 44 +41 +41 опасность
перегрева
1006.9 1006.3
18 13.09 СЗ 9 20 км н/о +34.2 +20.1 44 +41 +41 опасность
перегрева
1006.9 1006.3 +34.2
21 13.09 СЗ 9 20 км н/о +34.2 +20.1 44 +41 +41 опасность
перегрева
1006.9 1006.3
00 14.09 СЗ 9 20 км н/о +34.2 +20.1 44 +41 +41 опасность
перегрева
1006.9 1006.3
03 14.09 СЗ 9 20 км н/о +34.2 +20.1 44 +41 +41 опасность
перегрева
1006.9 1006.3
06 14.09 СЗ 9 20 км н/о +34.2 +20.1 44 +41 +41 опасность
перегрева
1006.9 1006.3 +33.3
12 14.09 СЗ 15 20 км н/о +36.5 +21.9 43 +45 +45 опасность
перегрева
1004.1 1003.5
15 14.09 СЗ 12 20 км н/о +34.2 +23.8 55 +46 +46 опасность
перегрева
1004.5 1003.9
18 14.09 СВ 6 20 км н/о +30.4 +16.7 44 +34 +34 очень
душно
1006.4 1005.8 +37.2
21 14.09 СЗ 3 20 км н/о +29.1 +20.8 61 +36 +36 очень
душно
1005.8 1005.2
03 15.09 ЮЗ 6 16 км н/о +23.4 +18.3 73 +29 +29 душно 1006.2 1005.6
06 15.09 СЗ 2 20 км н/о +32.4 +20.0 48 +39 +39 очень
душно
1007.6 1007.0 +23.1
09 15.09 СЗ 7 20 км н/о +35.3 +23.6 51 +46 +46 опасность
перегрева
1006.0 1005.4
12 15.09 СЗ 8 20 км н/о +36.1 +25.4 54 +50 +50 опасность
перегрева
1004.3 1003.7
15 15.09 С 7 16 км н/о +34.1 +27.5 69
18 15.09 СВ 4 20 км н/о +31.2 +22.7 61 +41 +41 опасность
перегрева
1006.9 1006.3 +37.6
21 15.09 С 2 12 км н/о +31.3 +26.1 74 +47 +47 опасность
перегрева
1006.5 1005.9
00 16.09 СЗ 9 13 км н/о +31.0 +26.3 76 +47 +47 опасность
перегрева
1005.7 1005.1
03 16.09 СЗ 6 20 км н/о +30.6 +23.1 64 +41 +41 опасность
перегрева
1006.6 1006.0
06 16.09 СЗ 3 16 км н/о +33.7 +26.6 67 +51 +51 опасность
перегрева
1008.0 1007.4 +29.5
09 16.09 СЗ 7 19 км н/о +37.0 +26.0 53 +52 +52 опасность
перегрева
1006.3 1005.7
12 16.09 СЗ 11 15 км н/о +35.4 +28.3 67 +57 +57 опасность
перегрева
1004.7 1004.1
15 16.09 СЗ 6 19 км н/о +35.4 +26.4 60 +52 +52 опасность
перегрева
1005.2 1004.6
18 16.09 С 4 20 км н/о +32.8 +23.8 59 +44 +44 опасность
перегрева
1006.6 1006.0 +42.0
21 16.09 ЮВ 4 11 км н/о +28.4 +21.7 67 +36 +36 очень
душно
1005.6 1005.0
00 17.09 В 8 11 км н/о +27.0 +22.3 75 +35 +35 очень
душно
1004.6 1004.0
03 17.09 ЮВ 4 8000 м н/о +26.7 +23.1 81 +36 +36 очень
душно
1006.3 1005.7
06 17.09 СЗ 3 12 км н/о +32.0 +25.6 69 +47 +47 опасность
перегрева
1007.8 1007.2 +26.4
09 17.09 СЗ 7 20 км н/о +37.5 +25.6 51 +52 +52 опасность
перегрева
1005.6 1005.0
12 17.09 СЗ 8 16 км н/о +37.0 +26.1 54 +53 +53 опасность
перегрева
1003.5 1002.9
15 17.09 СЗ 11 14 км н/о +34.3 +26.8 65 +52 +52 опасность
перегрева
1003.6 1003.0
18 17.09 В 4 16 км н/о +31.8 +21.4 54 +40 +40 очень
душно
1005.3 1004.7 +38.0
21 17.09 ЮВ 2 13 км н/о +29.1 +20.8 61 +36 +36 очень
душно
1004.6 1004.0
00 18.09 В 3 н/о н/о +26.6 +19.6 65 +32 +32 очень
душно
1004.5 1003.9
03 18.09 Ю 4 9000 м н/о +26.3 +20.8 72 +33 +33 очень
душно
1005.9 1005.3
06 18.09 З 3 13 км н/о +33.6 +23.3 55 +44 +44 опасность
перегрева
1007.5 1006.9 +24.8
09 18.09 С 5 20 км н/о +37.6 +18.6 33 +42 +42 опасность
перегрева
1006.1 1005.5
12 18.09 СЗ 10 19 км н/о +38.0 +21.4 38 +45 +45 опасность
перегрева
1004.4 1003.8
15 18.09 СЗ 8 11 км н/о +35.2 +25.0 56 +49 +49 опасность
перегрева
1004.9 1004.3
18 18.09 В 1 20 км н/о +33.2 +17.8 40 +37 +37 очень
душно
1006.4 1005.8 +39.0
21 18.09 Ю 5 19 км н/о +29.6 +15.7 43 +32 +32 душно 1005.6 1005.0
00 19.09 СЗ 3 16 км н/о +29.2 +20.9 61 +36 +36 очень
душно
1005.3 1004.7
03 19.09 ЮВ 5 18 км н/о +25.1 +16.4 59 +29 +29 душно 1007.2 1006.6
06 19.09 СЗ 4 15 км н/о +32.9 +21.5 51 +41 +41 опасность
перегрева
1008.9 1008.3 +23.5
09 19.09 СЗ 3 14 км н/о +36.5 +15.1 28 +38 +38 очень
душно
1007.1 1006.5
12 19.09 СЗ 5 10 км н/о +37.0 +24.4 49 +49 +49 опасность
перегрева
1005.3 1004.7
15 19.09 С 9 6000 м н/о +34.3 +27.8 69 +54 +54 опасность
перегрева
1005.5 1004.9
18 19.09 В 3 8000 м н/о +31.3 +25.0 69 +45 +45 опасность
перегрева
1006.7 1006.1 +38.6
21 19.09 В 2 20 км н/о +30.5 +19.1 51 +36 +36 очень
душно
1006.2 1005.6
00 20.09 СЗ 8 н/о н/о +31.1 +25.9 74 +46 +46 опасность
перегрева
1005.6 1005.0

 

Местоположение метеостанции Абу Самба (Катар): широта 24.75 долгота 50.82 высота над уровнем моря 8 м.

В архиве по умолчанию представлена погода в Абу Самба за последнюю неделю. Архивные данные за месяц целиком и за предыдущие месяцы, начиная с января 2011 года, Вы можете получить, выбрав интересующий диапазон дат из раскрывающегося списка и нажав кнопку "Ввод!".


*Определитесь, кто Вы:
робот инопланетянин человек

Внимание! Время в таблицах - всемирное. Для получения местного времени необходимо прибавить поправку, которая равна 4 ч.

Смотрите также архив погоды в соседних городах и на ближайших метеорологических станциях:

Погода в Духане (Катар) (73 км)
Погода в Доха порту (Катар) (80 км)
Погода в Дохе (Катар) (94 км)
Погода в Аэропорту Хамад (Катар) (98 км)
Погода в Эль-Хуфуфе (Саудовская Аравия) (148 км)
Погода в Бахрейне (Бахрейн) (170 км)
Погода в Дахране (Саудовская Аравия) (181 км)
Погода в Эд-Даммаме (Саудовская Аравия) (214 км)
Погода в Бендер-Дейере (Иран) (360 км)
Погода в Абу-Даби Батин аэропорту (ОАЭ) (370 км)

Пояснения к столбцам:

Ветер - указаны скорость ветра в м/с - средняя за 10 мин, порывы в срок и между сроками (в фигурных скобках) и направление, откуда дует ветер: С - северный, СВ - северо-восточный, В - восточный, ЮВ - юго-восточный, Ю - южный, ЮЗ - юго-западный, З - западный, СЗ - северо-западный.
Видимость - горизонтальная дальность видимости в метрах или километрах. При видимости от 1 до 10 км при отсутствии осадков обычно наблюдается дымка, при ухудшении видимости до 1 км и менее - туман. В сухую погоду видимость может ухудшаться дымом, пылью или мглою.
Явления - указаны атмосферные явления, наблюдавшиеся в срок или в последний час перед сроком; фигурными скобками обозначены явления, наблюдавшиеся между сроками (за 1-3 часа до срока); квадратными скобками обозначены град или гололедные отложения с указанием их диаметра в мм.
Облачность - указаны через наклонную черту общая и нижняя облачность в баллах и высота нижней границы облаков в метрах; квадратными скобками обозначены формы облаков: Ci - перистые, Cs - перисто-слоистые, Cc - перисто-кучевые, Ac - высококучевые, As - высокослоистые, Sc - слоисто-кучевые, Ns - слоисто-дождевые, Cu - кучевые, Cb - кучево-дождевые. Подробнее классификацию облаков см. в Атласе облаков (PDF).
T - Температура воздуха - температура, измеренная на высоте 2 м над землей.
Td - Температура точки росы - температура, при понижении до которой содержащийся в воздухе водяной пар достигнет насыщения.
f - Относительная влажность воздуха - влажноcть воздуха, измеренная на высоте 2 м над землей.
Te - Эффективная температура - температура, которую ощущает одетый по сезону человек в тени. Характеристика душности погоды. При расчете учитывается влияние влажности воздуха и скорости ветра на теплоощущения человека.
Tes - Эффективная температура на солнце - температура, которую ощущает человек, с поправкой на солнечный нагрев. Характеристика знойности погоды. Зависит от высоты солнца над горизонтом, облачности и скорости ветра. Ночью, в пасмурную погоду, а также при ветре 12 м/с и более поправка равна нулю.
P - Атмосферное давление - приведенное к уровню моря атмосферное давление.
Po - Атмосферное давление - измеренное на уровне метеостанции атмосферное давление.
Tmin - Минимальная температура - минимум температуры воздуха на высоте 2 м над землей.
Tmax - Максимальная температура - максимум температуры воздуха на высоте 2 м над землей.
R - Количество осадков - Количество выпавших осадков за период времени, мм. При наведении курсора мыши на число - период времени, за который выпало указанное количество осадков.
R24 - Количество осадков - Количество выпавших осадков за 24 часа, мм.
S - Снежный покров - Высота снежного покрова, см. При наведении курсора мыши на число - состояние снежного покрова и степень покрытия местности в баллах.